Regional Weather Roundup
Issued by NWS New Orleans/Baton Rouge, LA

Home | Current Version | Previous Version | Text Only | Print | Product List | Glossary On
Versions: 1 2 3 4 5 6 7 8 9 10 11 12 13 14 15 16 17 18 19 20 21 22 23 24 25 26 27 28 29 30 31 32 33 34 35 36 37 38 39 40 41 42 43 44 45 46 47 48 49 50
423
ASUS44 KLIX 040105
RWRLIX
NEW ORLEANS REGIONAL WEATHER ROUNDUP
NATIONAL WEATHER SERVICE NEW ORLEANS LA
700 PM CST TUE MAR 03 2015

NOTE: "FAIR" INDICATES FEW OR NO CLOUDS BELOW 12,000 FEET WITH NO
      SIGNIFICANT WEATHER AND/OR OBSTRUCTIONS TO VISIBILITY.
      SKY/WX - SKY CONDITION AND SIGNIFICANT WEATHER.
      TMP - AIR TEMPERATURE.     DP    - DEWPOINT TEMPERATURE.
      RH  - RELATIVE HUMIDITY.   PRES  - PRESSURE.
      HI  - HEAT INDEX.          WCI   - WIND CHILL INDEX.

*  THESE STATIONS ARE NOT NWS OR FAA STATIONS AND ARE NOT UNDER
   NWS QUALITY CONTROL.

LAZ038-040-048-061>063-065>067-069-040200-
SOUTHEAST LOUISIANA

CITY           SKY/WX    TMP DP  RH WIND       PRES   REMARKS
N.O. AUDUBON   NOT AVBL
N.O. INTL ARPT PTCLDY    71  64  78 S13       30.00S
N.O. LAKEFRONT PTCLDY    72  66  81 SE9       30.01S
SLIDELL        PTCLDY    68  66  93 SE8       30.01S
BATON ROUGE    MOCLDY    71  69  93 S7        29.97R
BOOTHVILLE     PTCLDY    68  67  96 E7        30.03R
BELLE CHASSE   MOCLDY    73  65  75 SE7       30.01S
BOGALUSA*        N/A     72  65  79 S9        30.01S
GALLIANO*      PTCLDY    72  67  84 CALM      30.01S
NEW ROADS*       N/A     72  66  81 S5        29.96S
GONZALES*      CLOUDY    71  70  97 CALM      29.98R
HAMMOND*       MOCLDY    72  64  78 S13G18    30.01R
HOUMA*         CLOUDY    72  68  89 SE6       30.00S
PORT FOURCHON* CLEAR     70  66  88 SE8       30.04R

$$

MSZ070-080>082-040200-
SOUTHERN MISSISSIPPI

CITY           SKY/WX    TMP DP  RH WIND       PRES   REMARKS
MCCOMB         CLOUDY    68  66  93 MISG      29.99R
GULFPORT       MOCLDY    65  63  93 SE12      30.03S
BILOXI         MOCLDY    66  66 100 SE9       30.03S
PASCAGOULA     PTCLDY    64  62  93 SE8       30.05R
STENNIS ARPT*  CLOUDY    66  63  88 SE8       30.03S

$$

COASTAL OBSERVATIONS
LAKE AND NEARSHORE STATIONS

STATION/POSITION TIME  TEMP    WIND        PRES    WAVE
                       AIR SEA DIR/SP/G            HT/PER
                 (UTC) (F)     (DEG/KT/KT) (MB)    (FT/S)
PASCAGOULA       0100   64     120/  5/  8 1017.0
WAVELAND YACHT   0100   62 59  160/  6/  8 1016.7
GRAND ISLE       0100   69 64  150/  6/  9 1016.8
SOUTHWEST PASS   0100   70 47  160/  9/ 10 1016.8
NEW CANAL        0100   73     150/  5/ 10 1016.3
SHELL BEACH      0100   68 63  130/ 11/ 15 1016.5

OFFSHORE STATIONS

STATION/POSITION TIME  TEMP    WIND        PRES    WAVE
                       AIR SEA DIR/SP/G            HT/PER
                 (UTC) (F)     (DEG/KT/KT) (MB)    (FT/S)
64 S DAUPHIN ISL 0025   71 71  140/ 17/ 19 1017.5    4/ 7

$$




USA.gov is the U.S. government's official web portal to all federal, state and local government web resources and services.